User: anonymous   Login
Location: Unspecified
(0.0000°N, 0.0000°E)
Time: 21:31:25
(UTC+00:00)
Language:

POPSAT HIP 1 - Orbit

View from above orbital plane
View from above orbital plane
View from above satellite
View from above satellite

Ground track
Ground track

The orbit data is extracted from the following two-line orbital elements,

1 40028U 14033U   18344.45692791  .00000028  00000-0  90852-5 0  9997
2 40028  97.9081 259.9168 0013261 330.2735  29.7733 14.88672348242994
Epoch (UTC): 10 December 2018 10:57:58
Eccentricity: 0.0013261
inclination: 97.9081°
perigee height: 593 km
apogee height: 611 km
right ascension of ascending node: 259.9168°
argument of perigee: 330.2735°
revolutions per day: 14.88672348
mean anomaly at epoch: 29.7733°
orbit number at epoch: 24299

The dashed part of the orbit path shows where the satellite is in the earth's shadow,  

DLR